TimeEST,TemperatureF,Dew PointF,Humidity,Sea Level PressureIn,VisibilityMPH,Wind Direction,Wind SpeedMPH,Gust SpeedMPH,PrecipitationIn,Events,Conditions,WindDirDegrees,DateUTC
12:15 AM,44.6,41.0,87,29.89,10.0,West,9.2,-,N/A,,Clear,260,2013-02-20 05:15:00
12:35 AM,44.6,41.0,87,29.90,10.0,West,9.2,-,N/A,,Clear,260,2013-02-20 05:35:00
12:55 AM,44.6,39.2,81,29.91,10.0,West,8.1,-,N/A,,Clear,260,2013-02-20 05:55:00
1:15 AM,44.6,39.2,81,29.91,10.0,West,8.1,-,N/A,,Clear,260,2013-02-20 06:15:00
1:35 AM,42.8,37.4,81,29.91,10.0,West,6.9,-,N/A,,Clear,270,2013-02-20 06:35:00
1:55 AM,42.8,37.4,81,29.92,10.0,West,4.6,-,N/A,,Clear,260,2013-02-20 06:55:00
2:15 AM,42.8,35.6,76,29.93,10.0,West,5.8,-,N/A,,Clear,260,2013-02-20 07:15:00
2:35 AM,41.0,35.6,81,29.93,10.0,West,4.6,-,N/A,,Clear,260,2013-02-20 07:35:00
2:55 AM,41.0,35.6,81,29.94,10.0,West,5.8,-,N/A,,Clear,260,2013-02-20 07:55:00
3:15 AM,39.2,33.8,81,29.94,10.0,West,4.6,-,N/A,,Clear,260,2013-02-20 08:15:00
3:35 AM,39.2,33.8,81,29.94,10.0,West,5.8,-,N/A,,Clear,270,2013-02-20 08:35:00
3:55 AM,39.2,32.0,75,29.95,10.0,West,5.8,-,N/A,,Clear,260,2013-02-20 08:55:00
4:35 AM,37.4,30.2,75,29.96,10.0,West,4.6,-,N/A,,Clear,280,2013-02-20 09:35:00
4:55 AM,37.4,30.2,75,29.96,10.0,West,3.5,-,N/A,,Clear,270,2013-02-20 09:55:00
5:15 AM,35.6,28.4,75,29.97,10.0,Calm,Calm,-,N/A,,Clear,0,2013-02-20 10:15:00
5:35 AM,35.6,26.6,70,29.98,10.0,West,8.1,-,N/A,,Clear,270,2013-02-20 10:35:00
5:55 AM,37.4,26.6,65,29.99,10.0,West,6.9,-,N/A,,Clear,270,2013-02-20 10:55:00
6:15 AM,35.6,24.8,65,30.00,10.0,West,8.1,-,N/A,,Clear,280,2013-02-20 11:15:00
6:35 AM,37.4,24.8,60,30.00,10.0,West,9.2,-,N/A,,Clear,270,2013-02-20 11:35:00
6:55 AM,35.6,24.8,65,30.02,10.0,West,9.2,-,N/A,,Clear,280,2013-02-20 11:55:00
7:15 AM,35.6,23.0,60,30.03,10.0,WNW,8.1,-,N/A,,Clear,300,2013-02-20 12:15:00
7:35 AM,37.4,24.8,60,30.03,10.0,West,9.2,-,N/A,,Clear,280,2013-02-20 12:35:00
7:55 AM,37.4,21.2,52,30.04,10.0,West,9.2,-,N/A,,Clear,280,2013-02-20 12:55:00
8:15 AM,39.2,21.2,49,30.04,10.0,West,12.7,16.1,N/A,,Clear,280,2013-02-20 13:15:00
8:35 AM,39.2,21.2,49,30.05,10.0,West,10.4,-,N/A,,Clear,260,2013-02-20 13:35:00
8:55 AM,39.2,21.2,49,30.05,10.0,West,15.0,21.9,N/A,,Clear,270,2013-02-20 13:55:00
9:15 AM,41.0,21.2,45,30.05,10.0,West,21.9,26.5,N/A,,Clear,270,2013-02-20 14:15:00
9:35 AM,41.0,21.2,45,30.04,10.0,West,18.4,24.2,N/A,,Clear,270,2013-02-20 14:35:00
9:55 AM,42.8,19.4,39,30.04,10.0,West,19.6,23.0,N/A,,Clear,280,2013-02-20 14:55:00
10:15 AM,42.8,17.6,36,30.04,10.0,West,17.3,24.2,N/A,,Clear,280,2013-02-20 15:15:00
10:35 AM,42.8,19.4,39,30.04,10.0,West,15.0,23.0,N/A,,Clear,280,2013-02-20 15:35:00
10:55 AM,44.6,19.4,37,30.04,10.0,West,15.0,20.7,N/A,,Clear,280,2013-02-20 15:55:00
11:15 AM,42.8,19.4,39,30.04,10.0,West,15.0,23.0,N/A,,Clear,280,2013-02-20 16:15:00
11:35 AM,44.6,19.4,37,30.04,10.0,WNW,12.7,18.4,N/A,,Clear,300,2013-02-20 16:35:00
11:55 AM,44.6,19.4,37,30.03,10.0,West,15.0,20.7,N/A,,Clear,270,2013-02-20 16:55:00
12:15 PM,46.4,19.4,34,30.03,10.0,West,12.7,17.3,N/A,,Clear,260,2013-02-20 17:15:00
12:35 PM,46.4,19.4,34,30.01,10.0,WNW,13.8,21.9,N/A,,Clear,290,2013-02-20 17:35:00
12:55 PM,46.4,19.4,34,30.01,10.0,West,13.8,23.0,N/A,,Clear,270,2013-02-20 17:55:00
1:15 PM,46.4,19.4,34,30.00,10.0,West,9.2,-,N/A,,Clear,260,2013-02-20 18:15:00
1:35 PM,46.4,19.4,34,30.00,10.0,West,12.7,21.9,N/A,,Clear,280,2013-02-20 18:35:00
1:55 PM,48.2,19.4,32,30.01,10.0,West,10.4,18.4,N/A,,Clear,280,2013-02-20 18:55:00
2:15 PM,48.2,19.4,32,30.00,10.0,West,15.0,20.7,N/A,,Clear,280,2013-02-20 19:15:00
2:35 PM,48.2,17.6,30,29.99,10.0,West,18.4,21.9,N/A,,Clear,260,2013-02-20 19:35:00
2:55 PM,48.2,19.4,32,30.00,10.0,West,10.4,-,N/A,,Clear,260,2013-02-20 19:55:00
3:15 PM,48.2,17.6,30,29.99,10.0,West,10.4,-,N/A,,Clear,260,2013-02-20 20:15:00
3:35 PM,48.2,17.6,30,29.99,10.0,West,10.4,-,N/A,,Clear,280,2013-02-20 20:35:00
3:55 PM,48.2,17.6,30,29.99,10.0,West,13.8,-,N/A,,Clear,260,2013-02-20 20:55:00
4:15 PM,48.2,17.6,30,29.99,10.0,West,12.7,16.1,N/A,,Clear,270,2013-02-20 21:15:00
4:35 PM,48.2,17.6,30,30.00,10.0,West,15.0,19.6,N/A,,Clear,270,2013-02-20 21:35:00
4:55 PM,48.2,17.6,30,30.01,10.0,WNW,10.4,-,N/A,,Clear,290,2013-02-20 21:55:00
5:15 PM,46.4,17.6,32,30.02,10.0,West,9.2,-,N/A,,Clear,280,2013-02-20 22:15:00
5:35 PM,46.4,17.6,32,30.03,10.0,West,5.8,-,N/A,,Clear,280,2013-02-20 22:35:00
5:55 PM,44.6,17.6,34,30.03,10.0,WSW,3.5,-,N/A,,Clear,250,2013-02-20 22:55:00
6:15 PM,39.2,24.8,56,30.04,10.0,Calm,Calm,-,N/A,,Clear,0,2013-02-20 23:15:00
6:35 PM,39.2,23.0,52,30.05,10.0,Calm,Calm,-,N/A,,Clear,0,2013-02-20 23:35:00
6:55 PM,37.4,24.8,60,30.06,10.0,WSW,4.6,-,N/A,,Clear,250,2013-02-20 23:55:00
7:15 PM,39.2,19.4,45,30.06,10.0,WNW,3.5,-,N/A,,Clear,290,2013-02-21 00:15:00
7:35 PM,37.4,23.0,56,30.07,10.0,Calm,Calm,-,N/A,,Clear,0,2013-02-21 00:35:00
7:55 PM,37.4,24.8,60,30.07,10.0,Calm,Calm,-,N/A,,Clear,0,2013-02-21 00:55:00
8:15 PM,35.6,24.8,65,30.07,10.0,Calm,Calm,-,N/A,,Clear,0,2013-02-21 01:15:00
8:35 PM,33.8,24.8,70,30.08,10.0,Calm,Calm,-,N/A,,Clear,0,2013-02-21 01:35:00
8:55 PM,33.8,24.8,70,30.09,10.0,Calm,Calm,-,N/A,,Clear,0,2013-02-21 01:55:00
9:15 PM,30.2,24.8,80,30.10,10.0,Calm,Calm,-,N/A,,Clear,0,2013-02-21 02:15:00
9:35 PM,32.0,24.8,75,30.11,10.0,Calm,Calm,-,N/A,,Clear,0,2013-02-21 02:35:00
9:55 PM,32.0,21.2,64,30.12,10.0,WNW,3.5,-,N/A,,Clear,300,2013-02-21 02:55:00
10:15 PM,39.2,24.8,56,30.13,10.0,NNE,10.4,-,N/A,,Clear,20,2013-02-21 03:15:00
10:35 PM,37.4,28.4,70,30.13,10.0,NNE,5.8,-,N/A,,Clear,20,2013-02-21 03:35:00
10:55 PM,35.6,28.4,75,30.13,10.0,Calm,Calm,-,N/A,,Clear,0,2013-02-21 03:55:00
11:35 PM,35.6,26.6,70,30.14,10.0,Calm,Calm,-,N/A,,Clear,0,2013-02-21 04:35:00
11:55 PM,35.6,26.6,70,30.13,10.0,NNE,5.8,-,N/A,,Clear,20,2013-02-21 04:55:00